Find Starlink 5927

NORAD ID: 55934 Int'l Des: 2023-037 Owner: SPXS Country: US Constellation: starlink operational
LEOCIRCULAR

实时位置

正在加载3D地球...

关于 Starlink 5927

正在加载描述...

即将过境

Passes for default location (London). Set your location on the main map for personalized predictions.

高度历史

Loading altitude history...

两行轨道根数

1 55934U 23037W 26123.51351123 .00000340 00000-0 36260-4 0 9994
2 55934 70.0002 146.1718 0003400 274.0321 86.0449 14.98326344172196
Epoch: May 3, 2026 • Age: 18 hours

当前状态

高度 574.3 km
速度 7.57 km/s
星下点 4.59°N, 0.51°W
发射日期 Mar 17, 2023
运行时间 3.1 years
类型 internet

技术详情

分类 Payload
质量 305.00 kg
干质量 290.00 kg
总质量 305.00 kg
长度 0.20 m
直径 2.80 m
跨度 9.00 m
形状 Box + pan
制造商 SPXS
平台类型 Starlink
阶段状态 In Orbit
所有者/国家 SPXS/US

Most Searched